Rutland, VT

8:28 PM EST on February 09, 2016 (GMT -0500)
NWS CO-OP RUTV1 | | Change Station
CLOSE
Current Station
Personal Weather Station
Location: Rutland, VT
Elevation: 620 ft
Nearby Weather Stations

Elev 620 ft 43.63 °N, 72.98 °W | Updated 4 minutes ago

Overcast
Overcast
25.6 °F
Feels Like 26 °F
N
0.0
Wind Variable Wind from WSW
Gusts 0.0 mph

Today
High -- | Low -- °F
--% Chance of Precip.
Yesterday
High -- | Low -- °F
Precip. -- in
Pressure 29.55 in
Visibility 10.0 miles
Clouds Overcast 3000 ft
Windchill 26 °F
Dew Point 21 °F
Humidity 83%
Rainfall 0.03 in
Snow Depth Not available.
6:59 AM 5:13 PM
Waxing Crescent, 3% visible
METAR KRUT 100115Z 12004KT 10SM OVC030 M04/M09 A2955 RMK AO1
Pressure 29.55 in
Visibility 10.0 miles
Clouds Overcast 3000 ft
Windchill 26 °F
Dew Point 21 °F
Humidity 83%
Rainfall 0.03 in
Snow Depth Not available.
6:59 AM 5:13 PM
Waxing Crescent, 3% visible
METAR KRUT 100115Z 12004KT 10SM OVC030 M04/M09 A2955 RMK AO1

10-Day Weather Forecast

Almanac

Astronomy

Feb. 09, 2016 Rise Set
Actual Time
Civil Twilight
Nautical Twilight
Astronomical Twilight
Moon
Length of Visible Light
Length of Day
Tomorrow will be .
, % of the Moon is Illuminated

Today's Extremes

State Highs State Lows

Community

WunderPhotos

Upload Photos

1,891,758 photos uploaded!

WunderBlog® & News

Nearby

Air Quality

  Air Quality AQ Index Pollutant
Not available.

Snow Depth

Station Depth Elevation

Earthquake Activity

City Distance Mag. Time & Date
Minimum magnitude displayed is 2.5.

Coastal Water Temperatures

Place Temperature

Stations

Nearby Weather Stations

Station Location Temp. Windchill Dew Point Humidity Wind Precip. Elev Updated Type
                   

Watches & Warnings

There are currently no watches in effect.